DECAYED

JIELONG 3 DEB, 65130 (Decayed)

Orbit data source: Space-Track

JIELONG 3 DEB, 65130 was space debris in LEO originally from a launch on Fri, 08 Aug 2025 UTC launched from the Yellow Sea Launch Area, China (YSLA). Debris objects in space refer to the collection of defunct objects orbiting the Earth. Examples of debris include non-operational satellites, rocket bodies, and fragments generated from explosions, collisions, or faulty payload assembly.

Not visible in the next 10 days
Identifier
65130, 2025-170M
Orbit
Decayed
Country
Flag of CNCN / PRC
Related business
Manufacturer
Changzheng H.
Mission
Decayed spacecraft
Bus & Motor
Unknown
Mass
Unknown
Launch date (UTC)
2025-08-08 (1 year ago)
Launch vehicle
Unknown
Launch site
Yellow Sea Launch Area, China (YSLA)
Object type
Payload
Rocket body
Debris
Shape & HBR
Unknown shape, 1.1 m
Radar Cross Section
Large (>1 m²)

Expand to show TLE details & history
Last TLE update: 1 year ago

TLE from 1 year ago
0 JIELONG 3 DEB
1 65130U 25170M   25224.25916934  .15138118  13381-4  32667-3 0  9999
2 65130  50.1409 165.9952 0124026 359.8099  26.7715 16.24772671   541
Epoch: 2025-08-12T06:13Z
TLE epoch observation values (Epoch: 2025-08-12T06:13:12.230Z)
Latitude
20.61805°
Longitude
129.93796°
Altitude
134.124 km
Speed
7.872 km/s
True Right ascension
12h 16m 46s
True Declination
20° 29' 39"
Sunlit
Object was in daylight at epoch
Visualization orbit readout
Latitude
Unknown
Longitude
Unknown
Altitude
Unknown
Speed
Unknown
Apparent Right ascension
Unknown
Apparent Declination
Unknown
Sunlit
N/A
Visualization observer readout
Local Sidereal Time
22:25:35
Azimuth
Unknown
Elevation
Unknown
Doppler factor
Unknown
Orbital elements
Apogee altitude
289.084 km
Perigee altitude
125.728 km
Semi-major axis
6,585.543 km
Eccentricity
0.0124
Inclination
50.1409°
RAAN
165.9952°
Arg. of periapsis
359.8099°
True anomaly
27.42064°
Mean anomaly
26.7715°
Eccentric anomaly
27.09516°
Mean motion
4.06121 °/min
Orbital period
88.64 mins
BSTAR
0.00032667
Loading maneuver chart data...
Computing Atmospheric mass density...
Loading historical data...
Loading historical data...
Loading historical data...
Loading historical data...
Loading historical data...
Loading historical data...
Loading historical data...

Documentation

Showing up to 5 results
|